sat.trackr.live / text

‹ back to catalog

STARLINK-4513

NORAD 53548 · 2022-101X

PAYLOAD ACTIVE UNKNOWN

§ Identity

Operator
Country
US
Launch date
2022-08-19
Launch site
AFETR
Launch vehicle
Mass (kg)
RCS (m²)

Purposes: comms

External: N2YO · Heavens-Above · Gunter

§ Orbital elements

Epoch: 2026-05-25T01:15:12.493152Z

Period
95.44 min
Inclination
53.2132°
Eccentricity
0.0001593
Mean motion
15.08840096 rev/d
Perigee alt
538.6 km
Apogee alt
540.8 km
Semi-major
6,917.9 km
B*
3.4379e-6
RAAN
81.3143°
Arg perigee
56.0786°
Mean anomaly
304.0358°
Rev number
20,783

§ Raw data

STARLINK-45131 53548U 22101X   26145.05222793 -.00000233  00000+0  34379-5 0  99982 53548  53.2132  81.3143 0001593  56.0786 304.0358 15.08840096207837

JSON: /api/v1/satellites/53548 · /tle

For live sub-satellite position, see the globe view (requires WebGL).

§ Visibility from observer

Set your observer location to see the next 7 days of passes ≥ 10°. The values pass through the URL so the page stays shareable.

No JS? Fill the form by hand. The geolocation button needs JavaScript.